CW0003 Weather Reports


Display with metric or nautical units.
time (UTC)temp
F
wind
direction
speed
MPH
gust
MPH
rain 1hr
in
rain 24hr
in
rain mn
in
humidity
%
barometer
mb
20180523110336 56 191 0.0 0.0 0.00 0.03 0.00 95 1009.9
20180523104831 56 0.0 0.0 0.00 0.03 0.00 95 1009.9
20180523103327 55 0.0 0.0 0.00 0.03 0.00 95 1009.8
20180523101818 55 0.0 0.0 0.00 0.03 0.00 94 1009.7
20180523100315 54 0.0 0.0 0.00 0.03 0.00 93 1009.7
20180523094808 54 0.0 0.0 0.00 0.03 0.00 93 1009.7
20180523093301 54 0.0 0.0 0.00 0.03 0.00 92 1009.9
20180523091759 54 0.0 0.0 0.00 0.03 0.00 92 1009.8
20180523090250 55 0.0 0.0 0.00 0.03 0.00 92 1009.3
20180523084747 55 0.0 0.0 0.00 0.03 0.00 92 1009.3
20180523083241 55 0.0 0.0 0.00 0.03 0.00 92 1009.4
20180523081733 55 0.0 0.0 0.00 0.03 0.00 92 1009.4
20180523080231 55 0.0 0.0 0.00 0.03 0.00 92 1009.3
20180523074720 55 0.0 0.0 0.00 0.03 0.00 92 1009.3
20180523073215 55 0.0 0.0 0.00 0.03 0.00 92 1009.4
20180523071708 55 0.0 0.0 0.00 0.03 0.00 92 1009.4
20180523070202 55 0.0 0.0 0.00 0.03 0.00 92 1009.8
20180523064657 55 0.0 0.0 0.00 0.03 0.00 91 1009.9
20180523063151 55 0.0 0.0 0.00 0.03 0.00 91 1010.0
20180523061645 55 0.0 0.0 0.00 0.03 0.00 91 1010.5
20180523060139 55 0.0 0.0 0.00 0.03 0.00 91 1010.6
20180523054633 55 0.0 0.0 0.00 0.03 0.00 91 1010.4
20180523053129 55 0.0 0.0 0.00 0.03 0.00 90 1010.8
20180523051624 55 0.0 0.0 0.00 0.03 0.00 90 1010.9
20180523050117 55 0.0 0.0 0.00 0.03 0.00 90 1011.3
20180523044611 55 0.0 0.0 0.00 0.03 0.00 90 1011.5
20180523043106 55 0.0 0.0 0.00 0.03 0.00 89 1011.5
20180523041601 55 0.0 0.0 0.00 0.03 0.00 89 1011.9
20180523040051 55 0.0 0.0 0.00 0.03 0.00 88 1011.9
20180523034549 55 0.0 0.0 0.00 0.03 0.03 87 1012.6
20180523033044 55 0.0 0.0 0.00 0.03 0.03 87 1012.9
20180523031540 55 0.0 0.0 0.00 0.03 0.03 87 1012.6
20180523030029 55 0.0 0.0 0.00 0.03 0.03 86 1012.7
20180523024526 55 0.0 0.0 0.00 0.03 0.03 85 1012.9
20180523023017 55 0.0 0.0 0.00 0.03 0.03 85 1013.2
20180523021509 55 0.0 0.0 0.00 0.03 0.03 85 1013.2
20180523015956 55 0.0 0.0 0.00 0.03 0.03 86 1013.6
20180523014452 55 0.0 0.0 0.00 0.03 0.03 85 1013.9
20180523012942 55 0.0 0.0 0.00 0.03 0.03 85 1014.1
20180523011431 55 0.0 0.0 0.00 0.03 0.03 84 1014.0
20180523005931 55 0.0 0.0 0.00 0.03 0.03 85 1014.0
20180523004427 56 0.0 0.0 0.00 0.03 0.03 82 1014.1
20180523002927 56 0.0 0.0 0.00 0.03 0.03 83 1014.3
20180523001421 57 0.0 0.0 0.00 0.03 0.03 81 1014.3
20180522235917 57 0.0 0.0 0.00 0.03 0.03 79 1014.6
20180522234414 58 0.0 0.0 0.00 0.03 0.03 74 1014.9
20180522232916 58 0.0 0.0 0.00 0.03 0.03 77 1015.1
20180522231409 59 0.0 0.0 0.00 0.03 0.03 74 1015.1
20180522230007 60 0.0 0.0 0.00 0.03 0.03 77 1015.1
20180522224505 60 0.0 0.0 0.00 0.03 0.03 77 1015.2
20180522223003 61 0.0 0.0 0.00 0.03 0.03 80 1015.6
20180522221453 62 173 0.0 0.0 0.00 0.03 0.03 79 1015.6
20180522215949 63 206 0.0 0.0 0.00 0.03 0.03 83 1015.9
20180522214443 63 219 0.0 0.0 0.00 0.03 0.03 82 1016.1
20180522212943 64 136 0.0 0.0 0.00 0.03 0.03 90 1016.2
20180522211438 64 136 0.0 0.0 0.00 0.03 0.03 89 1016.3
20180522205939 64 136 0.0 0.0 0.00 0.03 0.03 89 1016.3
20180522204434 64 136 0.0 0.0 0.00 0.03 0.03 88 1016.3
20180522202935 64 136 0.0 0.0 0.00 0.03 0.03 87 1016.2
20180522201431 64 136 0.0 0.0 0.00 0.03 0.03 87 1016.4
20180522195925 64 136 0.0 0.0 0.00 0.03 0.03 85 1016.6
20180522194421 65 136 0.0 0.0 0.00 0.03 0.03 83 1016.8
20180522192911 65 135 0.0 0.0 0.00 0.03 0.03 84 1016.6
20180522191407 65 134 0.0 0.0 0.00 0.03 0.03 85 1016.9
20180522185858 65 134 0.0 0.0 0.00 0.03 0.03 86 1017.3
20180522184349 65 134 0.0 0.0 0.00 0.03 0.03 85 1017.7
20180522182849 66 134 0.0 0.0 0.00 0.03 0.03 86 1017.9
20180522181343 66 136 0.0 0.0 0.00 0.03 0.03 90 1018.2
20180522175838 66 136 0.0 0.0 0.01 0.03 0.03 90 1018.3
20180522174332 66 135 0.0 0.0 0.01 0.03 0.03 88 1018.4
20180522172902 66 136 0.0 0.0 0.01 0.03 0.03 89 1017.9
20180522171358 66 213 0.0 0.0 0.02 0.03 0.03 90 1018.1
20180522165858 66 213 0.0 0.0 0.01 0.02 0.02 89 1018.7
20180522164355 66 216 0.0 0.0 0.01 0.02 0.02 91 1018.7
20180522162805 66 219 0.0 0.0 0.01 0.02 0.02 92 1018.9
20180522161257 65 219 0.0 0.0 0.00 0.01 0.01 91 1019.2
20180522155755 64 219 0.0 0.0 0.00 0.01 0.01 89 1019.2
20180522154252 64 223 0.0 0.0 0.00 0.01 0.01 90 1019.3
20180522152751 63 262 0.0 0.0 0.00 0.01 0.01 90 1019.6
20180522151245 62 262 0.0 0.0 0.01 0.01 0.01 90 1019.7
20180522145742 62 262 0.0 0.0 0.01 0.01 0.01 91 1019.9
20180522144240 61 263 0.0 0.0 0.01 0.01 0.01 91 1019.8
20180522142738 61 262 0.0 0.0 0.01 0.01 0.01 89 1019.9
20180522141235 62 261 0.0 0.0 0.00 0.00 0.00 87 1020.2
20180522135734 61 264 0.0 0.0 0.00 0.00 0.00 87 1019.9
20180522134229 61 264 0.0 0.0 0.00 0.00 0.00 86 1019.9
20180522132725 60 264 0.0 0.0 0.00 0.00 0.00 92 1020.0
20180522131221 60 264 0.0 0.0 0.00 0.00 0.00 96 1020.0
20180522125717 59 264 0.0 0.0 0.00 0.00 0.00 97 1020.2
20180522124216 59 264 0.0 0.0 0.00 0.00 0.00 97 1020.0
20180522122711 58 264 0.0 0.0 0.00 0.00 0.00 97 1020.1
20180522121206 58 264 0.0 0.0 0.00 0.00 0.00 97 1019.8
20180522115702 57 264 0.0 0.0 0.00 0.00 0.00 97 1019.7
20180522114153 56 264 0.0 0.0 0.00 0.00 0.00 97 1019.5
20180522112651 55 264 0.0 0.0 0.00 0.00 0.00 97 1019.5
20180522111148 54 264 0.0 0.0 0.00 0.00 0.00 96 1019.6